Погода Ханты-Мансийск

Погода Ханты-Мансийск : погода сейчас, прогноз погоды и архив. Всё, что Вы хотите узнать о погоде Ханты-Мансийск!

Хотите узнать прогноз погоды Ханты-Мансийск? Тогда Вам сюда: Погода Ханты-Мансийск

Поиск расширенной информации на нашем сайте:

Другие новости

Новости СМИ2

Главная страница сайта

Новости сайта

03.07.2017

Напоминаем, что на нашем специализированном сайте Метеоцентр.Азия вы можете получить высокодетализированные автоматические прогнозы погоды по пунктам России, СНГ и мира в авиационном формате (включающие направление и скорость ветра, видимость, явления погоды, количество и форму облачности, нижнюю и верхнюю границу облачности).


Погода Ханты-Мансийск - сегодня

Время (UTC), дата Ветер
(°,м/с) 
Видим.   Явления Облачность Т
(°С)
Тd
(°С)
f(%) Тe
(°С)
Pmin
(гПа)
dP
(гПа)
Po
(мм)
O2
(г/м3)
Тmin Tmax R s Состояние
почвы
21 23.07.17 100 (В) 10 км    ясно 
+17 +14.6 86 +26  1007.9  -0.2  752  282           
00 24.07.17 020 (С) 10 км    ясно 
+15.5 +14.6 94 +25  1007.7  -0.2  752  284           
03 24.07.17 090 (В) 10 км    ясно 
+20.7 +15 70 +29  1007.4  -0.3  752  278  +15.1    0.0     
06 24.07.17 020 (С) 10 км    4/4 600 м 
[Cu hum]
+23.3 +16.3 65 +34  1006.6  -0.7  751  275           
09 24.07.17 020 (С) 10 км    6/3 600 м кучево-дожд., верхняя 
[Cb calv|Ci fib]
+25.4 +15.1 53 +34  1005.9  -0.7  751  274           
12 24.07.17 160 (Ю) 10 км  {ливн. осадки}  8/6 600 м кучево-дожд., верхняя 
[Cb cap|Ci fib]
+22.3 +14.9 63 +31  1006  751  277           
15 24.07.17 тихо ()   10 км    3/0 средняя, верхняя 
[Ac As|Ci fib]
+20.6 +16.4 77 +32  1005.4  -0.6  750  278    +26.2  0.0     
18 24.07.17 тихо ()   10 км    3/0 средняя 
[Ac lent]
+16.9 +15.8 93 +27  1005.3  -0.2  750  281           
21 24.07.17 тихо ()   10 км    3/0 верхняя 
[Cc]
+16.2 +15.2 94 +25  1005.4  -0.1  750  282           
00 25.07.17 030 (СВ) 10 км    4/0 средняя 
[Ac cast]
+15.7 +14.9 95 +25  1005.4  750  283           
03 25.07.17 360 (С) н/о    н/о 
+21.8 +17.2 75 +35  1005.4  0.1  750  276  +15.3         
06 25.07.17 020 (С) 10 км    ясно 
+24.8 +15.2 55 +34  1004.9  -0.3  750  274           
09 25.07.17 050 (СВ) 10 км    6/6 600 м 
[Cu med, cong]
+27.2 +12.4 40 +32  1003.9  -0.9  749  272           
12 25.07.17 090 (В) 10 км    4/0 верхняя 
[Cc]
+26.9 +11.4 38 +30  1003.4  -0.5  749  273           
15 25.07.17 тихо ()   10 км    10/0 верхняя 
[Cs]
+23.1 +14.4 58 +31  1003.1  -0.4  749  275    +27.6       
18 25.07.17 тихо ()   10 км    8/0 верхняя 
[Cs]
+18.2 +14.3 78 +26  1003.1  0.1  748  280           
21 25.07.17 090 (В) 10 км    8/0 средняя, верхняя 
[Ac lent|Cs]
+19.2 +14.2 73 +27  1002.8  -0.2  748  279           
00 26.07.17 тихо ()   10 км    10/0 средняя, верхняя 
[As op|Cs]
+17.9 +14.4 80 +26  1002.8  0.1  748  280           
03 26.07.17 110 (В) 10 км    10/0 средняя, верхняя 
[Ac As|Cs]
+20.5 +15.5 73 +30  1003.1  0.4  749  277  +17         
06 26.07.17 130 (ЮВ) 10 км    10/3 300 м средняя 
[Cu hum|Ac As]
+23.9 +15.2 58 +33  1003.5  0.4  749  274           
09 26.07.17 тихо ()   10 км  в посл. час ливневой дождь{гроза}  10/8 300 м кучево-дожд., средняя 
[Cb cap|As op]
+21.4 +19.1 87 +38  1003.6  0.1  749  275           
12 26.07.17 тихо ()   10 км  {гроза, ливн. осадки}  10/3 300 м средняя 
[Cu hum|Ac lent]
+22.6 +19.1 81 +39  1003.5  749  274           
15 26.07.17 тихо ()   10 км    10/10 600 м 
[Sc diur, vesp]
+20.5 +19 91 +37  1003.9  0.3  749  276    +24.7     
18 26.07.17 160 (Ю) 10 км    9/8 1000 м средняя 
[Sc diur, vesp|As trans]
+17.7 +16.9 95 +31  1004.2  0.2  749  280           
21 26.07.17 тихо ()   10 км    9/4 1000 м средняя 
[Sc diur, vesp|Ac trans]
+16.7 +15.9 95 +27  1004.1  -0.1  749  281           
Время (UTC), дата Ветер
(°,м/с) 
Видим.   Явления Облачность Т
(°С)
Тd
(°С)
f(%) Тe
(°С)
Pmin
(гПа)
dP
(гПа)
Po
(мм)
O2
(г/м3)
Тmin Tmax R s Состояние
почвы

Для получения пояснительной информации подведите курсор к названию столбца.

ПОГОДА Ханты-Мансийск - архив

Всё, что Вы хотите узнать о погоде Ханты-Мансийск - удобно и подробно!

Выберите нужную дату (начиная с 1 января 2015* года) и нажмите кнопку "Найти".
Будут отображены архивные сводки погоды по пункту Ханты-Мансийск, начиная с указанной даты.


Отображать данные в формате CSV (для использования в таблицах Excel)


Внимание! Наш архив погоды предназначен исключительно для личного некоммерческого использования в познавательных целях. Если Вам необходимы официальные справки о состоянии погоды (для производственных, юридических, коммерческих и т.п. целей), обращайтесь в органы Росгидромета.

*Примечание: данная дата относится к архиву по метеостанциям СССР (Россия, СНГ, Балтия).
Архив по метеостанциям Зарубежной Европы и Азии (кроме Китая) хранится 10 дней, по другим регионам земного шара (Китай, Африка, Америка, Австралия, Океания) - 1 день.

Ханты-Мансийск - район местоположения метеостанции


Название, широта, долгота, высота метеостанции:
Ханты-Мансийск 61°ш. 69°д. 46 м над ур. моря [Российская Федерация]

Дополнительная информация

В oтличие oт бoльшинства пoгoдных сайтoв мы публикуем пoдрoбную метеoинфoрмацию в детальнoм прoфессиoнальнoм фoрмате.

Характеристики температуры и влажнoсти вoздуха измеряются на высoте 2 м в тени вдали oт зданий и деревьев.
Скoрoсть ветра измеряется на высoте 10 м (на урoвне рoста челoвека скoрoсть ветра ниже в 1.5-2 раза). Если метеoстанция нахoдится в гoрoде или в лесу, тo скoрoсть ветра занижена на 2-4 м/с пo сравнению с oткрытым местoм. Скoрoсть ветра над акватoриями крупных рек и oзёр, а также на вершинах хoлмoв на 2-5 м/с выше, чем в oбычных услoвиях.
Атмoсфернoе давление в разных тoчках местнoсти мoжет значительнo oтличаться oт давления на метеoстанции, в зависимoсти oт услoвий рельефа (при пoдъёме на 10 м давление пoнижается примернo на 1 мм рт.ст.).